Tracking 20623 objects as of 3-Apr-2020
HD Live streaming from Space Station
objects crossing your sky now

SATCOM 3 DEB

Track SATCOM 3 DEB now!


NORAD ID: 32987
Int'l Code: 1979-101N
Perigee: 8,019.1 km
Apogee: 35,606.6 km
Inclination: 8.4 °
Period: 784.8 minutes
Semi major axis: 28183 km
RCS: 0.005 m2 (small)
Launch date: December 7, 1979
Source: United States (US)
Launch site: AIR FORCE EASTERN TEST RANGE (AFETR)

Note: This is SATELLITE DEBRIS
aabbcc
Your satellite tracking list
Your tracking list is empty




NASA's NSSDC Master Catalog

Two Line Element Set (TLE):
1 32987U 79101N   20093.98334369 -.00000176 +00000-0 +00000-0 0  9991
2 32987 008.4319 264.9122 4894211 128.2950 286.3870 01.83486095081296
Source of the keplerian elements: AFSPC